ARABSAT-7B (BADR-8)

Last updated on Sun Nov 16 2025 00:03:45 GMT+0000 (Coordinated Universal Time)

1 56757U 23075A 25318.74381479 .00000148 00000+0 00000+0 0 9990 2 56757 0.0782 28.1840 0002642 298.9320 20.7652 1.00271999 8962
UTC large
Height (km)
Speed (km/s)
/
Latitude / Longitude
Inclination (degrees)
Orbital Period (minutes)
Azimuth
Elevation
Range (km)
Doppler Factor

Next 0 passes for location: London (51.5072 / 0.1276)

Sorry there are no passes over London.